Tracking 25710 objects as of 5-Jul-2022
HD Live streaming from Space Station
objects crossing your sky now

FENGYUN 1C DEB

Track FENGYUN 1C DEB now!
10-day predictions


NORAD ID: 32454
Int'l Code: 1999-025DBS
Perigee: 650.3 km
Apogee: 1,062.5 km
Inclination: 98.5 °
Period: 101.9 minutes
Semi major axis: 7227 km
RCS: 0.009 m2 (small)
Launch date: May 10, 1999
Source: People's Republic of China (PRC)
Launch site: Taiyaun Space Center, China (TSC)

Note: This is SATELLITE DEBRIS
aabbcc
Your satellite tracking list
Your tracking list is empty




NASA's NSSDC Master Catalog

Two Line Element Set (TLE):
1 32454U 99025DBS 22179.34772932  .00002491  00000-0  92410-3 0  9996
2 32454  98.4626 219.0066 0285130 191.8317 167.6062 14.12952494767805
Source of the keplerian elements: AFSPC